This demonstration page uses our WeatherBlox Daily Observations layout. Learn more.

Left ArrowRight Arrow

40.92945, -100.16068

Hourly Observations for November 29, 2019

Temp ( °F °C ) Dew Point ( °F °C ) Humidity (%) Winds ( mph kmh ) Pressure ( in mb ) Visibility ( mi km ) Precip ( " mm )
12:15 am 00:15 Cloudy with Mist and Fog 30 -1.2 30 -1.2 100 100 SE 12 19 30.22 1023 1.75 2.816345 0 0
12:35 am 00:35 Cloudy with Mist and Fog 30 -1.1 30 -1.1 100 100 SE 10 17 30.22 1023 1.25 2.011675 0 0
12:55 am 00:55 Cloudy with Mist and Fog 30 -1.1 30 -1.1 100 100 SE 9 15 30.22 1023 1 1.60934 0 0
1:15 am 01:15 Cloudy with Mist and Fog 30 -1 30 -1 100 100 SE 10 17 30.22 1023 1 1.60934 0 0
1:35 am 01:35 Cloudy with Mist and Fog 30 -1 30 -1 100 100 SE 12 19 30.21 1023 1 1.60934 0 0
1:55 am 01:55 Cloudy with Mist and Fog 30 -1 30 -1 100 100 SE 10 17 30.21 1023 1.5 2.41401 0 0
2:15 am 02:15 Cloudy with Mist and Fog 30 -1 30 -1 100 100 ESE 10 17 30.21 1023 1.5 2.41401 0 0
2:35 am 02:35 Cloudy with Mist and Fog 31 -0.8 31 -0.8 100 100 SE 12 19 30.21 1023 1.75 2.816345 0 0
2:55 am 02:55 Cloudy with Mist and Fog 31 -0.8 31 -0.8 100 100 SE 9 15 30.22 1023 1.25 2.011675 0 0
3:15 am 03:15 Cloudy with Mist and Fog 31 -0.8 31 -0.8 100 100 SE 12 19 30.22 1023 1.25 2.011675 0 0
3:35 am 03:35 Cloudy with Mist and Fog 31 -0.8 31 -0.8 100 100 SE 10 17 30.21 1023 1.25 2.011675 0 0
3:55 am 03:55 Cloudy with Mist and Fog 31 -0.8 31 -0.8 100 100 SE 12 19 30.2 1023 2 3.21868 0 0
4:15 am 04:15 Cloudy with Mist and Fog 31 -0.7 31 -0.7 100 100 SE 9 15 30.17 1022 1.25 2.011675 0 0
4:35 am 04:35 Cloudy with Mist and Fog 31 -0.7 31 -0.7 100 100 SE 9 15 30.16 1021 1 1.60934 0 0
4:55 am 04:55 Cloudy with Mist and Fog 31 -0.7 31 -0.7 100 100 SE 10 17 30.16 1021 0.75 1.207005 0 0
5:15 am 05:15 Cloudy with Mist and Fog 31 -0.7 31 -0.7 100 100 SE 12 19 30.16 1021 0.75 1.207005 0 0
5:35 am 05:35 Cloudy with Mist and Fog 31 -0.6 31 -0.6 100 100 SE 10 17 30.16 1021 1.5 2.41401 0 0
5:55 am 05:55 Cloudy with Mist and Fog 31 -0.6 31 -0.6 100 100 SE 12 19 30.15 1021 1 1.60934 0 0
6:15 am 06:15 Cloudy with Mist and Fog 31 -0.6 31 -0.6 100 100 ESE 10 17 30.15 1021 0.75 1.207005 0 0
6:35 am 06:35 Cloudy with Mist and Fog 31 -0.5 31 -0.5 100 100 SE 10 17 30.16 1021 0.75 1.207005 0 0
6:55 am 06:55 Cloudy with Mist and Fog 31 -0.5 31 -0.5 100 100 SE 10 17 30.15 1021 0.75 1.207005 0 0
7:15 am 07:15 Cloudy with Mist and Fog 31 -0.5 31 -0.5 100 100 ESE 12 19 30.14 1021 0.75 1.207005 0 0
7:35 am 07:35 Cloudy with Mist and Fog 31 -0.5 31 -0.5 100 100 SE 13 20 30.14 1021 0.75 1.207005 0 0
7:55 am 07:55 Cloudy with Light Snow 31 -0.5 31 -0.5 100 100 SE 10 17 30.16 1021 0.5 0.80467 0 0
8:15 am 08:15 Cloudy with Freezing Fog 31 -0.3 31 -0.3 100 100 ESE 14 22 30.14 1021 0.5 0.80467 0 0
8:35 am 08:35 Cloudy with Freezing Fog 31 -0.3 31 -0.3 100 100 ESE 12 19 30.13 1020 0.5 0.80467 0 0
8:55 am 08:55 Cloudy with Mist and Fog 31 -0.3 31 -0.3 100 100 ESE 12 19 30.1 1019 0.75 1.207005 0 0
9:15 am 09:15 Cloudy with Mist and Fog 31 -0.3 31 -0.3 100 100 E 14 22 30.04 1017 1.25 2.011675 0 0
9:35 am 09:35 Cloudy with Mist and Fog 32 0.1 32 0 99 99 ESE 12 19 30.05 1017 1.25 2.011675 0 0
9:55 am 09:55 Cloudy with Mist and Fog 32 0 32 0 100 100 SE 10 17 30.08 1019 3 4.82802 0 0
10:15 am 10:15 Cloudy with Light Rain 32 0 32 0 100 100 SE 12 19 30.13 1020 4 6.43736 0 0
10:35 am 10:35 Cloudy with Light Rain 32 0 32 0 100 100 SE 13 20 30.09 1019 2 3.21868 0.01 0.254
10:55 am 10:55 Cloudy with Light Rain 32 0 32 0 100 100 SE 12 19 30.09 1019 2 3.21868 0.01 0.254
11:15 am 11:15 Cloudy with Drizzle 32 0 32 0 100 100 SE 13 20 30.07 1018 7 11.26538 0 0
11:35 am 11:35 Cloudy with Drizzle 32 0 32 0 100 100 ESE 10 17 30.03 1017 10 16.0934 0 0
11:55 am 11:55 Cloudy with Light Rain 32 0 32 0 100 100 SE 8 13 30.05 1017 3 4.82802 0.02 0.508
12:15 pm 12:15 Cloudy with Light Rain 32 0.1 32 0 99 99 ESE 9 15 30.02 1016 5 8.0467 0.01 0.254
12:35 pm 12:35 Cloudy with Light Rain 32 0.1 32 0 99 99 SSW 8 13 30.08 1018 2 3.21868 0.05 1.27
12:55 pm 12:55 Cloudy with Rain 33 0.3 32 0.1 99 99 SE 3 6 30.04 1017 2 3.21868 0.08 2.032
1:15 pm 13:15 Cloudy 33 0.5 32 0.1 97 97 ESE 9 15 29.99 1016 10 16.0934 0 0
1:35 pm 13:35 Cloudy 32 0.2 32 0 99 99 ESE 12 19 29.98 1015 7 11.26538 0 0
1:55 pm 13:55 Cloudy 32 0 32 0 100 100 ESE 12 19 29.96 1014 10 16.0934 0 0
2:15 pm 14:15 Cloudy with Mist and Fog 32 0 32 0 100 100 ESE 15 24 29.94 1014 2.5 4.02335 0 0
2:35 pm 14:35 Cloudy with Light Rain 32 0 32 0 100 100 SE 16 26 29.91 1013 0.25 0.402335 0 0
2:55 pm 14:55 Cloudy with Fog 32 0 32 0 100 100 SE 13 20 29.92 1013 0.25 0.402335 0 0
3:15 pm 15:15 Cloudy with Fog 32 0 32 0 100 100 ESE 16 26 29.91 1013 0.25 0.402335 0 0
3:35 pm 15:35 Cloudy with Fog 32 0 32 0 100 100 ESE 16 26 29.9 1012 0.25 0.402335 0 0
3:55 pm 15:55 Cloudy with Fog 32 0 32 0 100 100 SE 14 22 29.9 1012 0.25 0.402335 0 0
4:15 pm 16:15 Cloudy with Nearby Thunderstorms 32 0.1 32 0.1 100 100 ESE 15 24 29.89 1012 0.25 0.402335 0 0
4:35 pm 16:35 Windy with Snow Likely 32 0 32 0 100 100 SE 20 31 29.88 1012 0.5 0.80467 0 0
4:55 pm 16:55 Cloudy with Light Snow 32 0 32 0 100 100 ESE 18 30 29.86 1011 0.5 0.80467 0 0
5:15 pm 17:15 Cloudy with Fog 32 0 32 0 100 100 ESE 20 31 29.84 1010 0.5 0.80467 0 0
5:35 pm 17:35 Cloudy with Mist and Fog 32 0 32 0 100 100 ESE 17 28 29.84 1010 1.25 2.011675 0 0
5:55 pm 17:55 Cloudy with Mist and Fog 32 0 32 0 100 100 ESE 16 26 29.85 1011 1.5 2.41401 0 0
6:15 pm 18:15 Cloudy with Mist and Fog 32 0.1 32 0.1 100 100 ESE 21 33 29.85 1011 1.5 2.41401 0 0
6:35 pm 18:35 Cloudy with Mist and Fog 32 0.1 32 0.1 100 100 ESE 18 30 29.83 1010 1.75 2.816345 0 0
6:55 pm 18:55 Cloudy with Mist and Fog 32 0.2 32 0.2 100 100 ESE 18 30 29.8 1009 1.5 2.41401 0 0
7:15 pm 19:15 Cloudy with Mist and Fog 32 0.2 32 0.2 100 100 ESE 20 31 29.8 1009 1.75 2.816345 0 0
7:35 pm 19:35 Cloudy with Mist and Fog 33 0.3 33 0.3 100 100 ESE 21 33 29.78 1009 1.75 2.816345 0 0
7:55 pm 19:55 Windy with Snow Likely 33 0.3 33 0.3 100 100 ESE 21 33 29.76 1008 1.75 2.816345 0 0
8:15 pm 20:15 Cloudy with Mist and Fog 33 0.5 33 0.5 100 100 ESE 18 30 29.75 1007 2 3.21868 0 0
8:35 pm 20:35 Cloudy with Mist and Fog 33 0.5 33 0.5 100 100 ESE 18 30 29.75 1007 1.25 2.011675 0 0
8:55 pm 20:55 Windy with Snow Likely 33 0.5 33 0.5 100 100 ESE 22 35 29.73 1007 1.75 2.816345 0 0
9:15 pm 21:15 Cloudy with Light Snow 33 0.5 33 0.5 100 100 ESE 18 30 29.73 1007 1.75 2.816345 0 0
9:35 pm 21:35 Cloudy with Mist and Fog 33 0.5 33 0.5 100 100 E 20 31 29.7 1006 2 3.21868 0 0
9:55 pm 21:55 Cloudy with Mist and Fog 33 0.6 33 0.6 100 100 ESE 20 31 29.69 1005 2.5 4.02335 0 0
10:15 pm 22:15 Cloudy with Mist and Fog 33 0.7 33 0.7 100 100 ESE 21 33 29.66 1004 1.75 2.816345 0 0
10:35 pm 22:35 Windy with Snow Likely 33 0.8 33 0.8 100 100 ESE 22 35 29.65 1004 1.75 2.816345 0 0
10:55 pm 22:55 Cloudy with Light Snow 33 0.8 33 0.8 100 100 ESE 18 30 29.63 1003 1.5 2.41401 0 0
11:15 pm 23:15 Cloudy with Mist and Fog 34 0.9 34 0.9 100 100 ESE 16 26 29.63 1003 1.75 2.816345 0 0
11:35 pm 23:35 Windy with Snow Likely 34 1 34 1 100 100 SE 20 31 29.61 1003 1.5 2.41401 0 0
11:55 pm 23:55 Cloudy with Light Snow 34 1.1 34 1.1 100 100 SE 17 28 29.59 1002 1.75 2.816345 0 0

Powered by AerisWeather